Tracking 18980 objects as of 21-Feb-2018
HD Live streaming from Space Station
objects crossing your sky now

IRIDIUM 90

Track IRIDIUM 90 now!
10-day predictions
IRIDIUM 90 is classified as:


NORAD ID: 27373
Int'l Code: 2002-005B
Perigee: 754.6 km
Apogee: 757.2 km
Inclination: 86.4 °
Period: 99.8 minutes
Semi major axis: 7126 km
RCS: 3.9161 m2 (large)
Launch date: February 11, 2002
Source: United States (US)
Launch site: AIR FORCE WESTERN TEST RANGE (AFWTR)

Spare; stored in 667 km storage orbit, not raised to 780 km operational orbit until needed
aabbcc
Your satellite tracking list
Your tracking list is empty




NASA's NSSDC Master Catalog

Two Line Element Set (TLE):
1 27373U 02005B   18052.49180955 -.00000049  00000-0 -20698-4 0  9990
2 27373  86.4439 245.8278 0001860  84.6143 275.5270 14.42946583847301
Source of the keplerian elements: AFSPC